Flag for Brazil Weather past 2 weeks in Belém, Para, Brazil

Now
81 °F

Passing clouds.


Feels Like: 86 °F
Forecast: 74 / 87 °F
Wind: 6 mph from East

Location: Belem Aeroporto

Current Time: Mar 28, 2015 at 9:22:43 AM

Latest Report: Mar 28, 2015 at 9:00 AM


Visibility: N/A

Pressure: 29.98 "Hg

Humidity: 84%

Dew point: 75 °F

Location of BelémLocation

Historic Weather in Belém — Graph

°F

Belém temperature yesterday

Maximum temperature yesterday: 84 °F (at 10:00 AM)
Minimum temperature yesterday: 45 °F (at 2:00 PM)
Average temperature yesterday: 77 °F

Past Weeks' High & Low Weather Summary

 TemperatureHumidityPressure
High88 °F (Mar 17, 1:00 PM)100% (Mar 15, 12:00 AM)30.01 "Hg (Mar 15, 12:00 AM)
Low37 °F (Mar 20, 8:00 PM)22% (Mar 25, 6:00 PM)29.71 "Hg (Mar 13, 5:00 PM)
Average78 °F87%29.87 "Hg
* Reported Mar 13 8:00 AM — Mar 28 8:00 AM, Belém, Weather by CustomWeather, © 2015

Note: Actual official high and low records may vary slightly from our data, if they occured in-between our weather recording intervals... More about our weather records

Advertising

Belém weather history for previous 24 hours

 ConditionsComfort  
Time TempWeatherWind HumidityBarometerVisibility
8:00 AM
Sat, Mar 28
75 °FPassing clouds.5 mph94%29.95 "HgN/A
7:00 AM75 °FSunny.3 mph94%29.95 "Hg10 mi
6:00 AM73 °FClear.2 mph94%29.95 "Hg10 mi
5:00 AM73 °FClear.2 mph94%29.92 "Hg10 mi
4:00 AM73 °FClear.6 mph94%29.92 "Hg10 mi
3:00 AM73 °FPassing clouds.3 mph94%29.92 "HgN/A
2:00 AM75 °FPartly cloudy.6 mph89%29.95 "HgN/A
1:00 AM75 °FPartly cloudy.7 mph94%29.98 "HgN/A
12:00 AM75 °FPartly cloudy.3 mph94%29.98 "HgN/A
11:00 PM
Fri, Mar 27
75 °FPartly cloudy.6 mph94%30.01 "HgN/A
10:00 PMN/ALight rain.5 mphN/AN/AN/A
9:00 PMN/ALight rain.10 mphN/AN/AN/A
8:00 PM79 °FLight rain. Passing clouds.3 mph89%29.95 "HgN/A
7:00 PM79 °FPartly cloudy.3 mph89%29.92 "HgN/A
6:00 PM79 °FScattered clouds.No wind89%29.89 "HgN/A
5:00 PM79 °FBroken clouds.5 mph89%29.89 "HgN/A
4:00 PM79 °FBroken clouds.9 mph84%29.83 "HgN/A
3:00 PM77 °FThunderstorms. Partly sunny.8 mph94%29.89 "HgN/A
2:00 PM45 °FThunderstorms. Broken clouds.7 mph100%29.86 "HgN/A
1:00 PM84 °FPartly sunny.7 mph79%29.92 "HgN/A
12:00 PM84 °FPartly sunny.6 mph74%29.95 "HgN/A
11:00 AM84 °FPartly sunny.7 mph74%29.98 "HgN/A
10:00 AM84 °FScattered clouds.7 mph74%29.98 "HgN/A
9:00 AM81 °FScattered clouds.7 mph84%29.95 "HgN/A
Weather by CustomWeather, © 2015

See weather overviewHow to use our weather pages